#timestamp,LO_Frequency,Hit,StdDev 
1618282815.0,286047002.5,N
1618282815.9,286047002.5,N
1618282835.8,286047001.4,N
1618282855.6,286047001.9,N
1618282875.4,286047001.4,N
1618282895.3,286047003.7,Y
1618282915.1,286047002.3,P
1618282935.9,286047000.1,N
1618282955.7,286047000.8,N
1618282975.5,286046998.5,N
1618282995.4,286047002.3,N
1618283015.2,286047002.0,N
1618283035.0,286047001.0,N
1618283035.9,286047001.0,N
1618283055.8,286047000.5,N
1618283075.6,286046998.6,N
1618283095.5,286047001.0,N
1618283115.3,286047002.1,N
1618283135.1,286047002.4,N
1618283155.9,286047000.2,N
1618283175.7,286047002.0,N
1618283195.6,286047002.1,N
1618283215.4,286046999.8,N
1618283235.2,286047000.4,N
1618283255.1,286047000.3,N
1618283256.0,286047000.3,N
1618283275.8,286047000.1,N
1618283295.6,286047002.2,N
1618283315.5,286047000.0,N
1618283335.3,286047000.6,N
1618283355.2,286047002.7,N
1618283375.9,286047002.8,N
1618283395.7,286047002.4,N
1618283415.6,286047002.4,N
1618283435.4,286046999.8,N
1618283455.2,286047000.7,N
1618283475.1,286047000.9,N
1618283476.0,286047000.9,N
1618283495.8,286046999.2,N
1618283515.7,286046996.8,N
1618283535.5,286046997.5,N
1618283555.3,286046996.9,N
1618283575.2,286046998.9,N
1618283595.0,286047000.6,N
1618283595.9,286047000.6,N
1618283615.8,286047000.8,N
1618283635.6,286046999.1,N
1618283655.4,286046997.6,N
1618283675.3,286046998.0,N
1618283695.1,286046996.6,N
1618283715.8,286046995.4,N
1618283735.7,286046995.1,N
1618283755.5,286046997.5,N
1618283775.4,286046999.2,N
1618283795.2,286046998.9,N
1618283815.0,286046998.1,N
1618283815.9,286046998.1,N
1618283835.8,286047001.0,N
1618283855.6,286046998.1,N
1618283875.4,286046996.9,N
1618283895.3,286046996.8,N
1618283915.1,286046999.5,N
1618283935.9,286047000.3,N
1618283955.7,286046999.2,N
1618283975.5,286047001.1,N
1618283995.4,286047001.2,N
1618284015.2,286046998.5,N
1618284035.0,286047000.7,N
1618284035.9,286047000.7,N
1618284055.8,286046998.3,N
1618284075.6,286047000.6,N
1618284095.5,286047000.8,N
1618284115.3,286046999.7,N
1618284135.1,286047002.0,N
1618284155.9,286046999.7,N
1618284175.7,286047002.8,N
1618284195.6,286047001.0,N
1618284215.4,286046998.9,N
1618284235.2,286046998.9,N
1618284255.1,286046999.5,N
1618284256.0,286046999.5,N
1618284275.8,286047001.2,N
1618284295.7,286046998.7,N
1618284315.5,286046998.4,N
1618284335.3,286046999.1,N
1618284355.2,286046999.2,N
1618284375.0,286046999.2,N
1618284375.9,286046999.2,N
1618284395.8,286046999.1,N
1618284415.6,286046998.3,N
1618284435.4,286047000.9,N
1618284455.3,286046999.3,N
1618284475.1,286046999.2,N
1618284495.8,286047001.1,N
1618284515.7,286047000.6,N
1618284535.5,286046998.3,N
1618284555.4,286047000.3,N
1618284575.2,286047000.0,N
1618284595.0,286046999.7,N
1618284595.9,286046999.7,N
1618284615.8,286046998.7,N
1618284635.6,286046999.2,N
1618284655.5,286046997.1,N
1618284675.3,286046999.0,N
1618284695.1,286047000.3,N
1618284715.9,286047002.8,N
1618284735.7,286047000.4,N
1618284755.6,286046998.3,N
1618284775.4,286046999.8,N
1618284795.2,286047002.5,N
1618284815.1,286047002.6,N
1618284816.0,286047002.6,N
1618284835.8,286047001.6,N
1618284855.6,286047003.7,N
1618284875.5,286047001.7,N
1618284895.3,286047002.5,N
1618284915.2,286047001.0,N
1618284935.9,286046998.8,N
1618284955.7,286046997.1,N
1618284975.6,286046997.7,N
1618284995.4,286046997.2,N
1618285015.3,286046998.0,N
1618285035.1,286046993.6,Y
1618285036.0,286046993.6,P
1618285055.8,286046997.4,N
1618285075.7,286046997.4,N
1618285095.5,286046999.2,N
1618285115.3,286046997.4,N
1618285135.2,286046997.8,N
1618285155.0,286046996.2,N
1618285155.9,286046996.2,N
1618285175.8,286046996.3,N
1618285195.6,286047001.1,N
1618285215.4,286047000.7,N
1618285235.3,286046997.5,N
1618285255.1,286046995.8,N
1618285275.9,286046996.8,N
1618285295.7,286046996.8,N
1618285315.5,286046996.9,N
1618285335.4,286046998.6,N
1618285355.2,286047001.1,N
1618285375.0,286046999.9,N
1618285375.9,286046999.9,N
1618285395.8,286047002.6,N
1618285415.6,286047001.0,N
1618285435.5,286046998.6,N
1618285455.3,286046998.6,N
1618285475.1,286046998.7,N
1618285495.9,286046998.8,N
1618285515.7,286046999.5,N
1618285535.5,286047000.4,N
1618285555.4,286047000.6,N
1618285575.2,286046998.9,N
1618285595.1,286046997.0,N
1618285596.0,286046997.0,N
1618285615.8,286046997.2,N
1618285635.6,286046999.7,N
1618285655.5,286047002.8,N
1618285675.3,286047002.5,N
1618285695.1,286047002.4,N
1618285715.9,286047001.5,N
1618285735.7,286047001.5,N
1618285755.6,286046999.9,N
1618285775.4,286047002.5,N
1618285795.2,286047000.9,N
1618285815.1,286047000.4,N
1618285816.0,286047000.4,N
1618285835.8,286047002.7,N
1618285855.7,286047004.2,N
1618285875.5,286047003.8,N
1618285895.3,286047001.6,N
1618285915.2,286047003.2,N
1618285935.9,286047004.3,N
1618285955.7,286047002.8,N
1618285975.6,286046999.9,N
1618285995.4,286047000.9,N
1618286015.2,286046998.7,N
1618286035.1,286047000.0,N
1618286036.0,286047000.0,N
1618286055.8,286047001.0,N
1618286075.7,286047000.5,N
1618286095.5,286047000.6,N
1618286115.3,286047000.9,N
1618286135.2,286047000.8,N
1618286155.0,286047000.0,N
1618286155.9,286047000.0,N
1618286175.8,286047002.3,N
1618286195.6,286047001.8,N
1618286215.4,286047002.3,N
1618286235.3,286047002.7,N
1618286255.1,286047000.3,N
1618286275.8,286047002.3,N
1618286295.7,286047002.8,N
1618286315.5,286047001.4,N
1618286335.4,286047002.0,N
1618286355.2,286047002.5,N
1618286375.0,286047002.8,N
1618286375.9,286047002.8,N
1618286395.8,286047001.7,N
